Weather in Gouvia

Greece     39°39′10″N   19°50′35″E
temp.,
°C
wind,
m/s
gust,
m/s
humid.,
%
clouds,
%
prec.,
mm/h
press.,
hPa
HPBL,
m
10 may, mon
mon1000:00+18sse22740 0.0 102026
03:00+17sse23835 0.0 101951
06:00+16sse23905 0.0 101971
09:00+19sse23675 0.0 1020353
12:00+23ssw125418 0.0 1019759
15:00+22w125953 0.0 1019888
18:00+20nw116497 0.0 1017469
21:00+18nw11760 0.0 101719
11 may, tue
tue1100:00+17w11790 0.0 101811
03:00+16nnw01800 0.0 101711
06:00+16s11780 0.0 101511
09:00+20nne10615 0.0 1016227
12:00+23wnw114998 0.0 1015677
15:00+22wnw22489 0.0 1015673
18:00+22wnw12540 0.0 1014551
21:00+18se01744 0.0 101311
12 may, wed
wed1200:00+16ssw22760 0.0 101336
03:00+16ese227740 0.0 101246
06:00+15sse33795 0.0 101172
09:00+19sse346560 0.0 1011481
12:00+21s4462100 0.0 1011942
15:00+22s336128 0.1 1010984
18:00+20wsw026614 0.4 1009778
21:00+17s118321 0.5 1010153
13 may, thu
thu1300:00+16ssw01880 0.1 101020
03:00+15ssw11890 0.1 101040
06:00+15wnw23871 0.1 1010134
09:00+18nnw22611 0.1 1010571
12:00+20nnw22484 0.0 10111106
15:00+21nw33474 0.1 10101174
18:00+20wsw22475 0.0 1010860
21:00+17s23705 0.1 1011141
14 may, fri
fri1400:00+15sse23890 1.0 101281
03:00+15se23880 1.6 101274
06:00+14se22879 0.1 101361
09:00+18ese23700 0.1 1014357
12:00+21sse34540 0.0 10151179
15:00+22s44485 0.0 10161104
18:00+21sse43515 0.0 10161021
21:00+17sse23735 0.0 101650